�N����,����,�~����,�C��,���x,�C��,����,���ϕ���,�ő�u�ԕ���,�ő厞����,���˗�,�I�_���x,�n�����x,�ő啗���N��,DTYPE
"23/05/01","00:10",0.0,10.5,87.3,1007.4,297.3,2.2,2.9,320.5,0.00,8.5,16.1,"00:00:56",1
"23/05/01","00:20",0.0,10.4,87.5,1007.8,299.4,2.1,2.5,319.8,0.00,8.5,16.1,"00:12:00",1
"23/05/01","00:30",0.0,10.5,87.7,1007.8,292.0,2.3,2.9,293.3,0.00,8.6,16.0,"00:23:44",1
"23/05/01","00:40",0.0,10.6,87.7,1007.8,305.3,2.5,3.5,326.5,0.00,8.7,16.0,"00:39:52",1
"23/05/01","00:50",0.0,10.7,87.6,1007.6,322.0,3.1,4.0,321.4,0.00,8.8,15.7,"00:42:24",1
"23/05/01","01:00",0.0,10.8,87.1,1007.8,326.5,3.4,4.3,316.8,0.00,8.8,16.0,"00:59:30",1
"23/05/01","01:10",0.0,10.9,86.5,1007.8,327.4,3.6,4.9,306.7,0.00,8.8,15.9,"01:08:16",1
"23/05/01","01:20",0.0,10.9,86.0,1007.6,328.7,3.0,3.6,326.5,0.00,8.7,15.7,"01:12:00",1
"23/05/01","01:30",0.2,10.8,85.8,1007.4,321.4,2.8,4.3,339.1,0.00,8.6,15.6,"01:22:00",1
"23/05/01","01:40",0.0,10.6,85.7,1007.8,297.7,2.1,2.9,323.3,0.00,8.3,15.8,"01:32:16",1
"23/05/01","01:50",0.0,10.5,86.1,1007.6,322.1,2.6,3.6,315.7,0.00,8.3,15.8,"01:48:48",1
"23/05/01","02:00",0.0,10.5,86.5,1007.4,328.1,2.8,4.2,337.4,0.00,8.4,15.6,"01:59:28",1
"23/05/01","02:10",0.0,10.6,86.5,1007.4,327.6,2.2,3.3,322.9,0.00,8.5,15.7,"02:01:52",1
"23/05/01","02:20",0.0,10.6,86.7,1007.1,327.6,2.8,4.1,330.8,0.00,8.5,15.5,"02:18:16",1
"23/05/01","02:30",0.0,10.5,86.8,1007.1,328.5,3.1,4.2,342.1,0.00,8.4,15.6,"02:22:16",1
"23/05/01","02:40",0.0,10.4,87.0,1006.7,329.9,3.2,4.8,345.0,0.00,8.4,15.5,"02:35:20",1
"23/05/01","02:50",0.0,10.3,87.2,1006.7,335.0,3.2,4.3,334.8,0.00,8.3,15.3,"02:45:36",1
"23/05/01","03:00",0.0,10.0,87.7,1006.7,330.8,3.0,4.3,338.1,0.00,8.1,15.3,"02:57:52",1
"23/05/01","03:10",0.0,9.9,88.2,1006.9,331.8,3.1,4.2,333.1,0.00,8.1,15.3,"03:02:24",1
"23/05/01","03:20",0.0,10.2,88.7,1006.9,326.6,4.1,6.3,331.0,0.00,8.5,15.3,"03:17:44",1
"23/05/01","03:30",0.0,10.2,88.8,1006.2,328.4,3.9,6.6,321.4,0.00,8.5,15.1,"03:26:40",1
"23/05/01","03:40",0.0,10.1,88.9,1006.4,325.7,4.4,6.7,326.5,0.00,8.4,15.1,"03:35:20",1
"23/05/01","03:50",0.2,9.9,89.1,1006.7,329.9,4.2,6.2,327.7,0.00,8.2,15.1,"03:47:20",1
"23/05/01","04:00",0.0,9.8,89.4,1006.7,329.0,4.4,7.8,317.8,0.00,8.2,15.0,"03:52:56",1
"23/05/01","04:10",0.0,9.8,89.5,1006.4,326.1,4.1,7.8,333.9,0.00,8.2,15.0,"04:00:32",1
"23/05/01","04:20",0.0,9.8,89.6,1006.9,321.0,3.9,5.6,326.3,0.00,8.2,15.1,"04:14:32",1
"23/05/01","04:30",0.0,9.6,89.8,1006.7,327.3,4.0,5.2,321.5,0.00,8.0,14.8,"04:22:24",1
"23/05/01","04:40",0.0,9.4,90.0,1006.7,327.7,4.4,6.4,319.8,0.00,7.9,14.9,"04:31:28",1
"23/05/01","04:50",0.0,9.0,90.0,1006.4,328.5,3.9,6.2,317.1,0.00,7.5,15.0,"04:49:04",1
"23/05/01","05:00",0.0,8.7,90.0,1006.7,331.0,3.0,4.3,305.5,0.00,7.2,14.8,"04:50:40",1
"23/05/01","05:10",0.0,8.3,89.8,1006.9,334.6,2.6,4.1,343.8,0.00,6.8,14.7,"05:08:00",1
"23/05/01","05:20",0.0,8.3,89.4,1006.9,325.9,2.8,4.7,340.6,0.00,6.7,15.0,"05:15:12",1
"23/05/01","05:30",0.0,8.3,89.2,1006.9,311.5,2.8,3.7,318.0,0.00,6.7,14.9,"05:21:20",1
"23/05/01","05:40",0.0,8.2,89.2,1007.6,310.0,3.1,4.0,315.1,0.00,6.6,14.8,"05:32:24",1
"23/05/01","05:50",0.0,7.8,89.2,1007.1,296.8,2.6,3.4,311.4,0.00,6.2,14.7,"05:43:28",1
"23/05/01","06:00",0.0,7.4,89.4,1007.1,291.9,2.0,2.9,318.3,0.00,5.8,14.8,"05:51:04",1
"23/05/01","06:10",0.0,7.4,89.7,1007.4,288.1,2.5,2.7,272.7,0.00,5.9,14.6,"06:01:36",1
"23/05/01","06:20",0.2,7.3,89.9,1007.1,300.6,2.7,4.1,326.8,0.00,5.8,14.6,"06:17:36",1
"23/05/01","06:30",0.0,7.3,90.0,1007.6,309.8,1.8,2.7,329.3,0.00,5.8,14.6,"06:22:48",1
"23/05/01","06:40",0.0,7.6,90.3,1007.4,318.5,2.3,2.9,320.5,0.01,6.2,14.6,"06:35:12",1
"23/05/01","06:50",0.0,8.3,90.5,1007.8,302.3,1.6,2.4,325.7,0.02,6.9,14.7,"06:41:04",1
"23/05/01","07:00",0.0,9.0,90.1,1007.8,318.2,2.0,2.6,321.1,0.03,7.5,14.7,"06:53:52",1
"23/05/01","07:10",0.0,9.6,89.5,1008.1,324.2,1.7,2.2,329.0,0.04,8.0,14.4,"07:01:36",1
"23/05/01","07:20",0.0,10.3,88.8,1008.1,295.0,1.0,1.7,325.0,0.06,8.6,14.6,"07:12:02",1
"23/05/01","07:30",0.0,10.7,87.3,1008.3,313.3,1.2,1.7,319.5,0.07,8.7,14.4,"07:24:00",1
"23/05/01","07:40",0.0,11.8,85.3,1008.6,315.3,0.7,1.6,326.6,0.09,9.5,14.2,"07:30:16",1
"23/05/01","07:50",0.0,12.4,82.1,1008.8,241.1,0.2,0.6,305.9,0.11,9.5,14.3,"07:40:08",1
"23/05/01","08:00",0.0,13.1,78.3,1008.8,278.0,0.3,0.9,258.0,0.14,9.5,14.3,"07:50:02",1
"23/05/01","08:10",0.0,13.5,73.1,1009.3,163.6,0.2,0.9,263.5,0.16,8.8,14.2,"08:00:08",1
"23/05/01","08:20",0.0,14.4,68.2,1009.3,297.7,0.3,1.0,303.4,0.18,8.7,14.4,"08:16:48",1
"23/05/01","08:30",0.0,15.0,65.7,1009.7,291.7,0.6,1.0,246.2,0.20,8.7,14.1,"08:22:56",1
"23/05/01","08:40",0.0,15.7,64.0,1009.7,302.1,1.0,1.7,339.7,0.22,9.0,14.2,"08:35:28",1
"23/05/01","08:50",0.0,15.9,64.2,1009.3,235.9,0.5,0.9,266.7,0.25,9.2,14.5,"08:41:12",1
"23/05/01","09:00",0.0,16.3,62.6,1009.3,283.0,0.7,1.4,317.7,0.27,9.2,14.4,"08:56:00",1
"23/05/01","09:10",0.0,16.6,63.2,1009.0,237.7,0.8,1.4,235.9,0.29,9.6,14.2,"09:07:12",1
"23/05/01","09:20",0.2,17.0,59.8,1009.0,164.3,0.6,1.6,249.7,0.31,9.2,14.3,"09:18:56",1
"23/05/01","09:30",0.0,17.2,58.5,1009.0,209.8,1.0,1.9,151.7,0.33,9.0,14.4,"09:24:56",1
"23/05/01","09:40",0.0,18.1,59.0,1008.6,252.7,0.7,1.7,148.9,0.35,10.0,14.3,"09:38:40",1
"23/05/01","09:50",0.0,17.8,55.7,1009.0,125.3,1.1,2.7,103.0,0.37,8.9,14.4,"09:43:04",1
"23/05/01","10:00",0.0,18.0,56.6,1008.3,205.0,1.6,3.3,198.9,0.38,9.3,14.5,"09:55:52",1
"23/05/01","10:10",0.0,18.5,57.4,1008.6,161.0,1.3,2.6,195.8,0.40,10.0,14.6,"10:01:52",1
"23/05/01","10:20",0.0,18.6,57.3,1008.6,151.3,1.8,2.9,121.3,0.42,10.0,14.6,"10:15:44",1
"23/05/01","10:30",0.0,18.8,56.9,1007.8,198.6,2.0,3.3,194.8,0.43,10.1,14.4,"10:26:24",1
"23/05/01","10:40",0.0,19.5,57.8,1008.1,174.1,1.6,3.2,160.8,0.45,11.0,14.8,"10:38:16",1
"23/05/01","10:50",0.0,19.2,54.3,1008.3,173.8,2.2,3.9,198.6,0.46,9.8,14.9,"10:45:52",1
"23/05/01","11:00",0.2,19.7,55.5,1008.3,178.9,1.6,3.4,210.1,0.47,10.6,14.9,"10:50:40",1
"23/05/01","11:10",0.0,20.0,54.0,1007.8,166.9,1.8,4.1,145.2,0.48,10.5,15.0,"11:08:32",1
"23/05/01","11:20",0.0,20.3,56.6,1008.1,139.1,1.8,4.8,125.8,0.49,11.4,15.0,"11:19:04",1
"23/05/01","11:30",0.0,20.3,52.8,1007.8,143.7,1.6,3.3,139.6,0.49,10.4,15.0,"11:23:12",1
"23/05/01","11:40",0.0,21.0,53.7,1007.6,188.2,1.7,3.7,228.5,0.50,11.3,15.2,"11:35:28",1
"23/05/01","11:50",0.0,21.6,48.3,1007.6,61.6,1.1,2.7,123.0,0.51,10.3,15.4,"11:49:44",1
"23/05/01","12:00",0.0,22.2,46.9,1007.1,54.0,1.0,2.0,161.3,0.51,10.4,15.4,"11:59:28",1
"23/05/01","12:10",0.0,22.3,47.0,1006.9,162.5,1.3,3.3,151.3,0.51,10.5,15.4,"12:03:36",1
"23/05/01","12:20",0.0,22.8,42.3,1006.7,238.1,1.8,4.1,255.1,0.52,9.4,15.7,"12:15:28",1
"23/05/01","12:30",0.0,22.7,42.6,1007.4,299.2,2.2,4.9,308.6,0.52,9.4,15.8,"12:24:56",1
"23/05/01","12:40",0.0,22.4,40.4,1006.9,312.6,3.4,8.1,343.3,0.52,8.3,15.7,"12:36:00",1
"23/05/01","12:50",0.2,22.7,40.2,1006.7,314.0,3.5,5.7,333.9,0.52,8.5,16.1,"12:43:28",1
"23/05/01","13:00",0.0,23.2,38.6,1006.7,293.4,2.7,5.7,304.2,0.52,8.4,16.0,"12:50:16",1
"23/05/01","13:10",0.0,22.9,38.0,1006.2,263.7,3.4,6.6,248.0,0.52,7.9,16.0,"13:06:56",1
"23/05/01","13:20",0.0,22.9,37.6,1006.4,294.3,3.4,7.8,317.3,0.51,7.7,16.2,"13:15:04",1
"23/05/01","13:30",0.0,23.3,38.8,1006.4,262.6,3.0,6.3,218.9,0.51,8.5,16.3,"13:25:44",1
"23/05/01","13:40",0.0,23.2,38.5,1006.2,233.4,3.9,7.4,230.2,0.51,8.3,16.3,"13:36:56",1
"23/05/01","13:50",0.0,23.2,34.6,1006.2,231.0,4.1,8.1,223.2,0.50,6.8,16.3,"13:47:36",1
"23/05/01","14:00",0.0,23.3,35.2,1006.0,302.4,3.7,6.0,345.0,0.49,7.1,16.5,"13:56:24",1
"23/05/01","14:10",0.0,23.2,31.9,1006.2,314.4,4.1,8.2,332.8,0.48,5.6,16.4,"14:08:08",1
"23/05/01","14:20",0.0,23.4,31.1,1005.7,247.7,3.7,5.9,290.5,0.48,5.4,16.5,"14:19:52",1
"23/05/01","14:30",0.2,23.5,28.7,1006.2,276.9,3.6,7.5,342.8,0.46,4.3,16.7,"14:28:16",1
"23/05/01","14:40",0.0,24.1,28.5,1006.0,255.4,2.8,6.7,277.5,0.45,4.8,16.7,"14:39:04",1
"23/05/01","14:50",0.0,24.0,26.8,1006.2,255.4,3.0,7.5,215.2,0.44,3.8,16.9,"14:40:16",1
"23/05/01","15:00",0.0,24.1,28.7,1006.0,242.4,3.4,6.5,181.4,0.42,4.9,16.9,"14:50:02",1
"23/05/01","15:10",0.0,24.1,29.8,1005.7,211.0,3.1,6.8,226.5,0.41,5.4,17.0,"15:08:08",1
"23/05/01","15:20",0.0,23.6,31.0,1005.5,232.8,2.5,5.8,198.7,0.23,5.5,17.1,"15:13:36",1
"23/05/01","15:30",0.0,22.5,35.8,1006.2,341.6,2.6,5.8,321.2,0.02,6.7,17.1,"15:27:52",1
"23/05/01","15:40",0.0,20.2,48.6,1006.2,346.8,3.9,7.3,354.3,0.01,9.1,17.1,"15:34:48",1
"23/05/01","15:50",0.0,19.1,56.7,1006.7,353.0,3.5,6.8,342.7,0.02,10.4,17.2,"15:49:20",1
"23/05/01","16:00",0.0,18.1,65.9,1007.1,338.7,4.0,8.8,340.0,0.08,11.7,17.1,"15:57:36",1
"23/05/01","16:10",0.0,17.4,69.8,1007.1,339.7,3.7,7.0,336.8,0.05,11.9,17.2,"16:04:56",1
"23/05/01","16:20",0.0,17.2,72.1,1007.6,336.4,4.1,8.2,324.5,0.01,12.2,17.2,"16:16:32",1
"23/05/01","16:30",0.0,16.2,77.4,1008.1,344.5,5.0,8.2,341.0,0.02,12.3,17.1,"16:22:38",1
"23/05/01","16:40",0.0,15.5,82.0,1008.3,333.0,4.7,7.1,337.1,0.02,12.5,17.2,"16:35:06",1
"23/05/01","16:50",0.0,15.7,83.7,1008.3,318.5,3.6,5.9,323.9,0.05,13.0,16.9,"16:42:32",1
"23/05/01","17:00",0.0,15.5,84.5,1008.6,326.4,3.4,5.4,321.5,0.03,12.9,17.2,"16:53:36",1
"23/05/01","17:10",0.0,15.5,84.7,1009.0,329.6,3.9,5.0,331.8,0.00,13.0,17.1,"17:09:14",1
"23/05/01","17:20",0.0,15.4,84.6,1009.5,325.8,3.4,5.8,330.3,0.00,12.9,17.1,"17:10:56",1
"23/05/01","17:30",0.0,15.1,85.0,1009.5,304.6,2.3,3.6,326.9,0.01,12.6,17.0,"17:22:40",1
"23/05/01","17:40",0.0,14.9,85.2,1010.2,319.0,2.5,3.9,293.9,0.01,12.5,17.3,"17:31:52",1
"23/05/01","17:50",0.0,14.7,85.8,1010.2,319.1,2.3,4.1,319.9,0.00,12.4,17.2,"17:45:46",1
"23/05/01","18:00",0.0,14.7,86.8,1010.4,291.9,2.1,3.3,314.3,0.00,12.6,16.7,"17:50:58",1
"23/05/01","18:10",0.0,14.5,87.6,1010.4,293.5,1.8,2.9,249.4,0.01,12.5,16.8,"18:00:08",1
"23/05/01","18:20",0.0,14.2,88.2,1010.4,314.9,2.1,3.3,338.0,0.01,12.3,16.8,"18:16:24",1
"23/05/01","18:30",0.0,14.1,88.5,1010.4,322.1,1.8,4.1,327.3,0.02,12.3,16.9,"18:29:20",1
"23/05/01","18:40",0.0,14.5,89.0,1010.7,285.8,1.3,3.5,343.4,0.02,12.8,16.8,"18:31:12",1
"23/05/01","18:50",0.2,14.6,89.2,1010.7,283.6,1.2,2.6,264.7,0.04,12.9,16.7,"18:41:28",1
"23/05/01","19:00",0.0,14.3,88.4,1010.9,257.2,1.1,2.5,225.4,0.03,12.4,16.7,"18:59:12",1
"23/05/01","19:10",0.0,14.4,87.3,1011.4,251.3,1.5,2.4,238.3,0.02,12.4,16.9,"19:03:36",1
"23/05/01","19:20",0.0,14.4,86.6,1011.4,270.6,1.2,1.9,252.0,0.01,12.2,16.7,"19:11:04",1
"23/05/01","19:30",0.0,14.7,86.3,1011.4,305.8,1.6,2.0,258.0,0.00,12.5,16.8,"19:20:08",1
"23/05/01","19:40",0.0,14.3,87.1,1011.6,319.6,2.0,2.7,315.0,0.00,12.2,16.7,"19:36:56",1
"23/05/01","19:50",0.0,13.7,88.1,1011.9,307.4,1.8,2.5,322.2,0.00,11.8,16.7,"19:49:12",1
"23/05/01","20:00",0.0,13.3,88.9,1011.6,307.7,2.0,2.7,323.5,0.00,11.5,16.6,"19:51:30",1
"23/05/01","20:10",0.0,12.8,89.6,1012.1,322.6,1.7,2.5,327.0,0.00,11.2,16.7,"20:04:32",1
"23/05/01","20:20",0.0,12.4,90.3,1012.3,313.6,1.8,2.9,321.0,0.00,10.9,16.6,"20:19:18",1
"23/05/01","20:30",0.0,12.1,90.9,1012.6,293.9,2.1,3.5,314.0,0.00,10.7,16.6,"20:27:14",1
"23/05/01","20:40",0.0,11.7,91.4,1012.6,304.8,2.3,2.9,311.8,0.00,10.4,16.5,"20:31:06",1
"23/05/01","20:50",0.0,11.5,91.8,1012.8,320.1,2.0,2.7,320.6,0.00,10.3,16.4,"20:41:10",1
"23/05/01","21:00",0.0,11.1,92.2,1013.0,304.0,2.1,3.1,328.4,0.00,9.9,16.5,"20:58:50",1
"23/05/01","21:10",0.0,10.9,92.6,1012.8,297.4,1.7,2.6,322.1,0.00,9.8,16.4,"21:00:48",1
"23/05/01","21:20",0.0,10.8,92.9,1013.0,282.1,1.7,2.7,303.1,0.00,9.7,16.4,"21:18:42",1
"23/05/01","21:30",0.0,10.6,93.2,1013.0,288.5,2.1,2.9,315.6,0.00,9.6,16.2,"21:25:20",1
"23/05/01","21:40",0.0,10.4,93.4,1013.3,300.8,2.3,3.9,331.0,0.00,9.4,16.3,"21:37:52",1
"23/05/01","21:50",0.0,10.3,93.5,1013.5,320.7,2.0,3.4,353.5,0.00,9.3,16.2,"21:42:56",1
"23/05/01","22:00",0.0,10.1,93.6,1013.5,316.7,1.8,3.3,321.5,0.00,9.2,16.2,"21:56:40",1
"23/05/01","22:10",0.0,9.9,93.8,1014.0,309.8,1.3,3.1,320.8,0.00,9.0,16.1,"22:00:40",1
"23/05/01","22:20",0.0,9.8,93.9,1014.0,319.8,1.3,2.7,320.9,0.00,8.9,16.1,"22:17:44",1
"23/05/01","22:30",0.0,9.7,94.0,1014.0,292.9,1.2,2.1,308.9,0.00,8.8,15.9,"22:22:16",1
"23/05/01","22:40",0.0,9.5,94.2,1014.0,317.8,2.2,3.2,321.2,0.00,8.7,16.0,"22:30:56",1
"23/05/01","22:50",0.0,9.4,94.4,1013.8,302.2,1.5,2.8,309.7,0.00,8.6,15.8,"22:48:32",1
"23/05/01","23:00",0.0,9.5,94.5,1013.5,289.7,1.5,3.2,303.3,0.00,8.7,15.8,"22:51:36",1
"23/05/01","23:10",0.0,9.8,94.6,1014.0,84.6,0.7,1.8,104.5,0.00,9.0,15.7,"23:04:32",1
"23/05/01","23:20",0.0,9.8,94.6,1014.2,269.3,1.2,2.0,269.8,0.00,9.0,15.8,"23:14:24",1
"23/05/01","23:30",0.0,9.5,94.6,1014.7,318.4,2.3,3.2,320.8,0.00,8.7,15.6,"23:23:04",1
"23/05/01","23:40",0.0,9.3,94.8,1014.9,315.9,2.3,3.2,317.7,0.00,8.5,15.7,"23:35:20",1
"23/05/01","23:50",0.0,9.2,94.9,1014.9,325.0,2.6,3.3,320.4,0.00,8.5,15.8,"23:42:32",1
"23/05/01","24:00",0.0,8.9,95.0,1014.9,321.2,2.1,2.8,321.0,0.00,8.2,15.9,"23:51:52",1
